owner,sensor,date,latitude,longitude,air_temperature,qcFlag 
DISL,ioos:station:DISL:PPTA:1,2012-03-01T00:00:00Z,30.2791,-87.5561,18.83,1111122 
DISL,ioos:station:DISL:PPTA:1,2012-03-01T00:30:00Z,30.2791,-87.5561,18.76,1111122 
DISL,ioos:station:DISL:PPTA:1,2012-03-01T01:00:00Z,30.2791,-87.5561,18.83,1111122 
DISL,ioos:station:DISL:PPTA:1,2012-03-01T01:30:00Z,30.2791,-87.5561,18.83,1111122 
DISL,ioos:station:DISL:PPTA:1,2012-03-01T02:00:00Z,30.2791,-87.5561,18.76,1111122 
DISL,ioos:station:DISL:PPTA:1,2012-03-01T02:30:00Z,30.2791,-87.5561,18.52,1111122 
DISL,ioos:station:DISL:PPTA:1,2012-03-01T03:00:00Z,30.2791,-87.5561,18.35,1111122 
DISL,ioos:station:DISL:PPTA:1,2012-03-01T03:30:00Z,30.2791,-87.5561,18.18,1111122 
DISL,ioos:station:DISL:PPTA:1,2012-03-01T04:00:00Z,30.2791,-87.5561,18.36,1111122 
DISL,ioos:station:DISL:PPTA:1,2012-03-01T04:30:00Z,30.2791,-87.5561,18.6,1111122 
DISL,ioos:station:DISL:PPTA:1,2012-03-01T05:00:00Z,30.2791,-87.5561,18.16,1111122 
DISL,ioos:station:DISL:PPTA:1,2012-03-01T05:30:00Z,30.2791,-87.5561,18.64,1111122 
DISL,ioos:station:DISL:PPTA:1,2012-03-01T06:00:00Z,30.2791,-87.5561,18.67,1111122 
DISL,ioos:station:DISL:PPTA:1,2012-03-01T06:30:00Z,30.2791,-87.5561,19.11,1111122 
DISL,ioos:station:DISL:PPTA:1,2012-03-01T07:00:00Z,30.2791,-87.5561,19.17,1111122 
DISL,ioos:station:DISL:PPTA:1,2012-03-01T07:30:00Z,30.2791,-87.5561,19.04,1111122 
DISL,ioos:station:DISL:PPTA:1,2012-03-01T08:00:00Z,30.2791,-87.5561,19.17,1111122 
DISL,ioos:station:DISL:PPTA:1,2012-03-01T08:30:00Z,30.2791,-87.5561,18.93,1111122 
DISL,ioos:station:DISL:PPTA:1,2012-03-01T09:00:00Z,30.2791,-87.5561,18.76,1111122 
DISL,ioos:station:DISL:PPTA:1,2012-03-01T09:30:00Z,30.2791,-87.5561,18.8,1111122 
DISL,ioos:station:DISL:PPTA:1,2012-03-01T10:00:00Z,30.2791,-87.5561,18.73,1111122 
DISL,ioos:station:DISL:PPTA:1,2012-03-01T10:30:00Z,30.2791,-87.5561,18.76,1111122 
DISL,ioos:station:DISL:PPTA:1,2012-03-01T11:00:00Z,30.2791,-87.5561,18.93,1111122 
DISL,ioos:station:DISL:PPTA:1,2012-03-01T11:30:00Z,30.2791,-87.5561,18.93,1111122 
DISL,ioos:station:DISL:PPTA:1,2012-03-01T12:00:00Z,30.2791,-87.5561,19.21,1111122 
DISL,ioos:station:DISL:PPTA:1,2012-03-01T12:30:00Z,30.2791,-87.5561,19.04,1111122 
DISL,ioos:station:DISL:PPTA:1,2012-03-01T13:00:00Z,30.2791,-87.5561,19.45,1111122 
DISL,ioos:station:DISL:PPTA:1,2012-03-01T13:30:00Z,30.2791,-87.5561,19.38,1111122 
DISL,ioos:station:DISL:PPTA:1,2012-03-01T14:00:00Z,30.2791,-87.5561,19.24,1111122 
DISL,ioos:station:DISL:PPTA:1,2012-03-01T15:00:00Z,30.2791,-87.5561,19.87,1111122 
DISL,ioos:station:DISL:PPTA:1,2012-03-01T15:30:00Z,30.2791,-87.5561,19.94,1111122 
DISL,ioos:station:DISL:PPTA:1,2012-03-01T16:00:00Z,30.2791,-87.5561,19.99,1111122 
DISL,ioos:station:DISL:PPTA:1,2012-03-01T16:30:00Z,30.2791,-87.5561,20.24,1111122 
DISL,ioos:station:DISL:PPTA:1,2012-03-01T17:00:00Z,30.2791,-87.5561,21.14,1111122 
DISL,ioos:station:DISL:PPTA:1,2012-03-01T17:30:00Z,30.2791,-87.5561,20.88,1111122 
DISL,ioos:station:DISL:PPTA:1,2012-03-01T18:00:00Z,30.2791,-87.5561,21.63,1111122 
DISL,ioos:station:DISL:PPTA:1,2012-03-01T18:30:00Z,30.2791,-87.5561,21.29,1111122 
DISL,ioos:station:DISL:PPTA:1,2012-03-01T19:00:00Z,30.2791,-87.5561,21.53,1111122 
DISL,ioos:station:DISL:PPTA:1,2012-03-01T19:30:00Z,30.2791,-87.5561,20.64,1111122 
DISL,ioos:station:DISL:PPTA:1,2012-03-01T20:00:00Z,30.2791,-87.5561,21.21,1111122 
DISL,ioos:station:DISL:PPTA:1,2012-03-01T20:30:00Z,30.2791,-87.5561,20.09,1111122 
DISL,ioos:station:DISL:PPTA:1,2012-03-01T21:00:00Z,30.2791,-87.5561,19.83,1111122 
DISL,ioos:station:DISL:PPTA:1,2012-03-01T21:30:00Z,30.2791,-87.5561,19.8,1111122 
DISL,ioos:station:DISL:PPTA:1,2012-03-01T22:00:00Z,30.2791,-87.5561,19.59,1111122 
DISL,ioos:station:DISL:PPTA:1,2012-03-01T22:30:00Z,30.2791,-87.5561,19.54,1111122 
DISL,ioos:station:DISL:PPTA:1,2012-03-01T23:00:00Z,30.2791,-87.5561,19.41,1111122 
DISL,ioos:station:DISL:PPTA:1,2012-03-01T23:30:00Z,30.2791,-87.5561,19.56,1111122 
DISL,ioos:station:DISL:PPTA:1,2012-03-02T00:00:00Z,30.2791,-87.5561,19.87,1111122 
DISL,ioos:station:DISL:PPTA:1,2012-03-02T00:30:00Z,30.2791,-87.5561,19.94,1111122 
DISL,ioos:station:DISL:PPTA:1,2012-03-02T01:00:00Z,30.2791,-87.5561,19.78,1111122 
DISL,ioos:station:DISL:PPTA:1,2012-03-02T01:30:00Z,30.2791,-87.5561,19.04,1111122 
DISL,ioos:station:DISL:PPTA:1,2012-03-02T02:00:00Z,30.2791,-87.5561,18.8,1111122 
DISL,ioos:station:DISL:PPTA:1,2012-03-02T02:30:00Z,30.2791,-87.5561,18.66,1111122 
DISL,ioos:station:DISL:PPTA:1,2012-03-02T03:00:00Z,30.2791,-87.5561,18.32,1111122 
DISL,ioos:station:DISL:PPTA:1,2012-03-02T03:30:00Z,30.2791,-87.5561,18.46,1111122 
DISL,ioos:station:DISL:PPTA:1,2012-03-02T04:00:00Z,30.2791,-87.5561,19.1,1111122 
DISL,ioos:station:DISL:PPTA:1,2012-03-02T04:30:00Z,30.2791,-87.5561,19.55,1111122 
DISL,ioos:station:DISL:PPTA:1,2012-03-02T05:00:00Z,30.2791,-87.5561,19.75,1111122 
DISL,ioos:station:DISL:PPTA:1,2012-03-02T05:30:00Z,30.2791,-87.5561,19.79,1111122 
DISL,ioos:station:DISL:PPTA:1,2012-03-02T06:00:00Z,30.2791,-87.5561,19.1,1111122 
DISL,ioos:station:DISL:PPTA:1,2012-03-02T06:30:00Z,30.2791,-87.5561,19.14,1111122 
DISL,ioos:station:DISL:PPTA:1,2012-03-02T07:00:00Z,30.2791,-87.5561,19.69,1111122 
DISL,ioos:station:DISL:PPTA:1,2012-03-02T07:30:00Z,30.2791,-87.5561,19.99,1111122 
DISL,ioos:station:DISL:PPTA:1,2012-03-02T08:00:00Z,30.2791,-87.5561,18.8,1111122 
DISL,ioos:station:DISL:PPTA:1,2012-03-02T08:30:00Z,30.2791,-87.5561,18.63,1111122 
DISL,ioos:station:DISL:PPTA:1,2012-03-02T09:00:00Z,30.2791,-87.5561,18.42,1111122 
DISL,ioos:station:DISL:PPTA:1,2012-03-02T09:30:00Z,30.2791,-87.5561,18.25,1111122 
DISL,ioos:station:DISL:PPTA:1,2012-03-02T10:00:00Z,30.2791,-87.5561,18.11,1111122 
DISL,ioos:station:DISL:PPTA:1,2012-03-02T10:30:00Z,30.2791,-87.5561,18.08,1111122 
DISL,ioos:station:DISL:PPTA:1,2012-03-02T11:00:00Z,30.2791,-87.5561,17.95,1111122 
DISL,ioos:station:DISL:PPTA:1,2012-03-02T11:30:00Z,30.2791,-87.5561,18.12,1111122 
DISL,ioos:station:DISL:PPTA:1,2012-03-02T12:00:00Z,30.2791,-87.5561,18.57,1111122 
DISL,ioos:station:DISL:PPTA:1,2012-03-02T12:30:00Z,30.2791,-87.5561,18.94,1111122 
DISL,ioos:station:DISL:PPTA:1,2012-03-02T13:00:00Z,30.2791,-87.5561,18.67,1111122 
DISL,ioos:station:DISL:PPTA:1,2012-03-02T13:30:00Z,30.2791,-87.5561,18.8,1111122 
DISL,ioos:station:DISL:PPTA:1,2012-03-02T14:00:00Z,30.2791,-87.5561,19.14,1111122 
DISL,ioos:station:DISL:PPTA:1,2012-03-02T15:00:00Z,30.2791,-87.5561,19.46,1111122 
DISL,ioos:station:DISL:PPTA:1,2012-03-02T15:30:00Z,30.2791,-87.5561,20.65,1111122 
DISL,ioos:station:DISL:PPTA:1,2012-03-02T16:00:00Z,30.2791,-87.5561,20.96,1111122 
DISL,ioos:station:DISL:PPTA:1,2012-03-02T16:30:00Z,30.2791,-87.5561,21.83,1111122 
DISL,ioos:station:DISL:PPTA:1,2012-03-02T17:00:00Z,30.2791,-87.5561,21.58,1111122 
DISL,ioos:station:DISL:PPTA:1,2012-03-02T17:30:00Z,30.2791,-87.5561,21.34,1111122 
DISL,ioos:station:DISL:PPTA:1,2012-03-02T18:00:00Z,30.2791,-87.5561,22.04,1111122 
DISL,ioos:station:DISL:PPTA:1,2012-03-02T18:30:00Z,30.2791,-87.5561,22.06,1111122 
DISL,ioos:station:DISL:PPTA:1,2012-03-02T19:00:00Z,30.2791,-87.5561,21.99,1111122 
DISL,ioos:station:DISL:PPTA:1,2012-03-02T19:30:00Z,30.2791,-87.5561,22.92,1111122 
DISL,ioos:station:DISL:PPTA:1,2012-03-02T20:00:00Z,30.2791,-87.5561,22.35,1111122 
DISL,ioos:station:DISL:PPTA:1,2012-03-02T20:30:00Z,30.2791,-87.5561,21.19,1111122 
DISL,ioos:station:DISL:PPTA:1,2012-03-02T21:00:00Z,30.2791,-87.5561,21.47,1111122 
DISL,ioos:station:DISL:PPTA:1,2012-03-02T21:30:00Z,30.2791,-87.5561,21.15,1111122 
DISL,ioos:station:DISL:PPTA:1,2012-03-02T22:00:00Z,30.2791,-87.5561,20.81,1111122 
DISL,ioos:station:DISL:PPTA:1,2012-03-02T22:30:00Z,30.2791,-87.5561,20.88,1111122 
DISL,ioos:station:DISL:PPTA:1,2012-03-02T23:00:00Z,30.2791,-87.5561,21.03,1111122 
DISL,ioos:station:DISL:PPTA:1,2012-03-02T23:30:00Z,30.2791,-87.5561,21.13,1111122 
DISL,ioos:station:DISL:PPTA:1,2012-03-03T00:00:00Z,30.2791,-87.5561,20.79,1111122 
DISL,ioos:station:DISL:PPTA:1,2012-03-03T00:30:00Z,30.2791,-87.5561,20.62,1111122 
DISL,ioos:station:DISL:PPTA:1,2012-03-03T01:00:00Z,30.2791,-87.5561,20.48,1111122 
DISL,ioos:station:DISL:PPTA:1,2012-03-03T01:30:00Z,30.2791,-87.5561,20.45,1111122 
DISL,ioos:station:DISL:PPTA:1,2012-03-03T02:00:00Z,30.2791,-87.5561,20.36,1111122 
DISL,ioos:station:DISL:PPTA:1,2012-03-03T02:30:00Z,30.2791,-87.5561,20.46,1111122 
DISL,ioos:station:DISL:PPTA:1,2012-03-03T03:00:00Z,30.2791,-87.5561,20.32,1111122 
DISL,ioos:station:DISL:PPTA:1,2012-03-03T03:30:00Z,30.2791,-87.5561,20.18,1111122 
DISL,ioos:station:DISL:PPTA:1,2012-03-03T04:00:00Z,30.2791,-87.5561,20.25,1111122 
DISL,ioos:station:DISL:PPTA:1,2012-03-03T04:30:00Z,30.2791,-87.5561,20.26,1111122 
DISL,ioos:station:DISL:PPTA:1,2012-03-03T05:00:00Z,30.2791,-87.5561,20.19,1111122 
DISL,ioos:station:DISL:PPTA:1,2012-03-03T05:30:00Z,30.2791,-87.5561,20.05,1111122 
DISL,ioos:station:DISL:PPTA:1,2012-03-03T06:00:00Z,30.2791,-87.5561,20.26,1111122 
DISL,ioos:station:DISL:PPTA:1,2012-03-03T06:30:00Z,30.2791,-87.5561,20.27,1111122 
DISL,ioos:station:DISL:PPTA:1,2012-03-03T07:00:00Z,30.2791,-87.5561,20.13,1111122 
DISL,ioos:station:DISL:PPTA:1,2012-03-03T07:30:00Z,30.2791,-87.5561,20.06,1111122 
DISL,ioos:station:DISL:PPTA:1,2012-03-03T08:00:00Z,30.2791,-87.5561,20.13,1111122 
DISL,ioos:station:DISL:PPTA:1,2012-03-03T08:30:00Z,30.2791,-87.5561,20.37,1111122 
DISL,ioos:station:DISL:PPTA:1,2012-03-03T09:00:00Z,30.2791,-87.5561,20.5,1111122 
DISL,ioos:station:DISL:PPTA:1,2012-03-03T09:30:00Z,30.2791,-87.5561,20.6,1111122 
DISL,ioos:station:DISL:PPTA:1,2012-03-03T10:00:00Z,30.2791,-87.5561,20.7,1111122 
DISL,ioos:station:DISL:PPTA:1,2012-03-03T10:30:00Z,30.2791,-87.5561,20.49,1111122 
DISL,ioos:station:DISL:PPTA:1,2012-03-03T11:00:00Z,30.2791,-87.5561,20.35,1111122 
DISL,ioos:station:DISL:PPTA:1,2012-03-03T11:30:00Z,30.2791,-87.5561,20.25,1111122 
DISL,ioos:station:DISL:PPTA:1,2012-03-03T12:00:00Z,30.2791,-87.5561,20.73,1111122 
DISL,ioos:station:DISL:PPTA:1,2012-03-03T12:30:00Z,30.2791,-87.5561,20.63,1111122 
DISL,ioos:station:DISL:PPTA:1,2012-03-03T13:00:00Z,30.2791,-87.5561,20.45,1111122 
DISL,ioos:station:DISL:PPTA:1,2012-03-03T13:30:00Z,30.2791,-87.5561,20.66,1111122 
DISL,ioos:station:DISL:PPTA:1,2012-03-03T14:00:00Z,30.2791,-87.5561,17.49,1111122 
DISL,ioos:station:DISL:PPTA:1,2012-03-03T14:30:00Z,30.2791,-87.5561,16.34,1111122 
DISL,ioos:station:DISL:PPTA:1,2012-03-03T15:00:00Z,30.2791,-87.5561,15.91,1111122 
DISL,ioos:station:DISL:PPTA:1,2012-03-03T15:30:00Z,30.2791,-87.5561,15.75,1111122 
DISL,ioos:station:DISL:PPTA:1,2012-03-03T16:00:00Z,30.2791,-87.5561,15.55,1111122 
DISL,ioos:station:DISL:PPTA:1,2012-03-03T16:30:00Z,30.2791,-87.5561,15.21,1111122 
DISL,ioos:station:DISL:PPTA:1,2012-03-03T17:00:00Z,30.2791,-87.5561,14.87,1111122 
DISL,ioos:station:DISL:PPTA:1,2012-03-03T17:30:00Z,30.2791,-87.5561,14.97,1111122 
DISL,ioos:station:DISL:PPTA:1,2012-03-03T18:00:00Z,30.2791,-87.5561,14.5,1111122 
DISL,ioos:station:DISL:PPTA:1,2012-03-03T18:30:00Z,30.2791,-87.5561,13.72,1111122 
DISL,ioos:station:DISL:PPTA:1,2012-03-03T19:00:00Z,30.2791,-87.5561,13.66,1111122 
DISL,ioos:station:DISL:PPTA:1,2012-03-03T19:30:00Z,30.2791,-87.5561,13.73,1111122 
DISL,ioos:station:DISL:PPTA:1,2012-03-03T20:00:00Z,30.2791,-87.5561,13.8,1111122 
DISL,ioos:station:DISL:PPTA:1,2012-03-03T20:30:00Z,30.2791,-87.5561,13.8,1111122 
DISL,ioos:station:DISL:PPTA:1,2012-03-03T21:00:00Z,30.2791,-87.5561,13.08,1111122 
DISL,ioos:station:DISL:PPTA:1,2012-03-03T21:30:00Z,30.2791,-87.5561,13.08,1111122 
DISL,ioos:station:DISL:PPTA:1,2012-03-03T22:00:00Z,30.2791,-87.5561,12.64,1111122 
DISL,ioos:station:DISL:PPTA:1,2012-03-03T22:30:00Z,30.2791,-87.5561,12.74,1111122 
DISL,ioos:station:DISL:PPTA:1,2012-03-03T23:00:00Z,30.2791,-87.5561,12.68,1111122 
DISL,ioos:station:DISL:PPTA:1,2012-03-03T23:30:00Z,30.2791,-87.5561,12.92,1111122 
DISL,ioos:station:DISL:PPTA:1,2012-03-04T00:00:00Z,30.2791,-87.5561,12.78,1111122 
DISL,ioos:station:DISL:PPTA:1,2012-03-04T00:30:00Z,30.2791,-87.5561,12.27,1111122 
DISL,ioos:station:DISL:PPTA:1,2012-03-04T01:00:00Z,30.2791,-87.5561,12.17,1111122 
DISL,ioos:station:DISL:PPTA:1,2012-03-04T01:30:00Z,30.2791,-87.5561,11.83,1111122 
DISL,ioos:station:DISL:PPTA:1,2012-03-04T02:00:00Z,30.2791,-87.5561,11.73,1111122 
DISL,ioos:station:DISL:PPTA:1,2012-03-04T02:30:00Z,30.2791,-87.5561,11.63,1111122 
DISL,ioos:station:DISL:PPTA:1,2012-03-04T03:00:00Z,30.2791,-87.5561,11.76,1111122 
DISL,ioos:station:DISL:PPTA:1,2012-03-04T03:30:00Z,30.2791,-87.5561,11.66,1111122 
DISL,ioos:station:DISL:PPTA:1,2012-03-04T04:00:00Z,30.2791,-87.5561,11.63,1111122 
DISL,ioos:station:DISL:PPTA:1,2012-03-04T04:30:00Z,30.2791,-87.5561,11.73,1111122 
DISL,ioos:station:DISL:PPTA:1,2012-03-04T05:00:00Z,30.2791,-87.5561,11.6,1111122 
DISL,ioos:station:DISL:PPTA:1,2012-03-04T05:30:00Z,30.2791,-87.5561,11.57,1111122 
DISL,ioos:station:DISL:PPTA:1,2012-03-04T06:00:00Z,30.2791,-87.5561,11.47,1111122 
DISL,ioos:station:DISL:PPTA:1,2012-03-04T06:30:00Z,30.2791,-87.5561,11.19,1111122 
DISL,ioos:station:DISL:PPTA:1,2012-03-04T07:00:00Z,30.2791,-87.5561,10.85,1111122 
DISL,ioos:station:DISL:PPTA:1,2012-03-04T07:30:00Z,30.2791,-87.5561,10.62,1111122 
DISL,ioos:station:DISL:PPTA:1,2012-03-04T08:00:00Z,30.2791,-87.5561,10.34,1111122 
DISL,ioos:station:DISL:PPTA:1,2012-03-04T08:30:00Z,30.2791,-87.5561,10.17,1111122 
DISL,ioos:station:DISL:PPTA:1,2012-03-04T09:00:00Z,30.2791,-87.5561,9.84,1111122 
DISL,ioos:station:DISL:PPTA:1,2012-03-04T09:30:00Z,30.2791,-87.5561,9.29,1111122 
DISL,ioos:station:DISL:PPTA:1,2012-03-04T10:00:00Z,30.2791,-87.5561,9.12,1111122 
DISL,ioos:station:DISL:PPTA:1,2012-03-04T10:30:00Z,30.2791,-87.5561,9.23,1111122 
DISL,ioos:station:DISL:PPTA:1,2012-03-04T11:00:00Z,30.2791,-87.5561,9.06,1111122 
DISL,ioos:station:DISL:PPTA:1,2012-03-04T11:30:00Z,30.2791,-87.5561,8.78,1111122 
DISL,ioos:station:DISL:PPTA:1,2012-03-04T12:00:00Z,30.2791,-87.5561,8.55,1111122 
DISL,ioos:station:DISL:PPTA:1,2012-03-04T12:30:00Z,30.2791,-87.5561,8.34,1111122 
DISL,ioos:station:DISL:PPTA:1,2012-03-04T13:00:00Z,30.2791,-87.5561,8.61,1111122 
DISL,ioos:station:DISL:PPTA:1,2012-03-04T13:30:00Z,30.2791,-87.5561,9.09,1111122 
DISL,ioos:station:DISL:PPTA:1,2012-03-04T14:00:00Z,30.2791,-87.5561,10.14,1111122 
DISL,ioos:station:DISL:PPTA:1,2012-03-04T14:30:00Z,30.2791,-87.5561,10.74,1111122 
DISL,ioos:station:DISL:PPTA:1,2012-03-04T15:00:00Z,30.2791,-87.5561,11.3,1111122 
DISL,ioos:station:DISL:PPTA:1,2012-03-04T15:30:00Z,30.2791,-87.5561,12.36,1111122 
DISL,ioos:station:DISL:PPTA:1,2012-03-04T16:00:00Z,30.2791,-87.5561,13.09,1111122 
DISL,ioos:station:DISL:PPTA:1,2012-03-04T16:30:00Z,30.2791,-87.5561,13.97,1111122 
DISL,ioos:station:DISL:PPTA:1,2012-03-04T17:00:00Z,30.2791,-87.5561,14.75,1111122 
DISL,ioos:station:DISL:PPTA:1,2012-03-04T17:30:00Z,30.2791,-87.5561,15.19,1111122 
DISL,ioos:station:DISL:PPTA:1,2012-03-04T18:00:00Z,30.2791,-87.5561,15.09,1111122 
DISL,ioos:station:DISL:PPTA:1,2012-03-04T18:30:00Z,30.2791,-87.5561,15.67,1111122 
DISL,ioos:station:DISL:PPTA:1,2012-03-04T19:00:00Z,30.2791,-87.5561,16.08,1111122 
DISL,ioos:station:DISL:PPTA:1,2012-03-04T19:30:00Z,30.2791,-87.5561,16.36,1111122 
DISL,ioos:station:DISL:PPTA:1,2012-03-04T20:00:00Z,30.2791,-87.5561,16.66,1111122 
DISL,ioos:station:DISL:PPTA:1,2012-03-04T20:30:00Z,30.2791,-87.5561,16.9,1111122 
DISL,ioos:station:DISL:PPTA:1,2012-03-04T21:00:00Z,30.2791,-87.5561,17.08,1111122 
DISL,ioos:station:DISL:PPTA:1,2012-03-04T21:30:00Z,30.2791,-87.5561,17.42,1111122 
DISL,ioos:station:DISL:PPTA:1,2012-03-04T22:00:00Z,30.2791,-87.5561,16.5,1111122 
DISL,ioos:station:DISL:PPTA:1,2012-03-04T22:30:00Z,30.2791,-87.5561,16.78,1111122 
DISL,ioos:station:DISL:PPTA:1,2012-03-04T23:00:00Z,30.2791,-87.5561,16.68,1111122 
DISL,ioos:station:DISL:PPTA:1,2012-03-04T23:30:00Z,30.2791,-87.5561,16.21,1111122 
DISL,ioos:station:DISL:PPTA:1,2012-03-05T00:00:00Z,30.2791,-87.5561,15.57,1111122 
DISL,ioos:station:DISL:PPTA:1,2012-03-05T00:30:00Z,30.2791,-87.5561,15.23,1111122 
DISL,ioos:station:DISL:PPTA:1,2012-03-05T01:00:00Z,30.2791,-87.5561,14.89,1111122 
DISL,ioos:station:DISL:PPTA:1,2012-03-05T01:30:00Z,30.2791,-87.5561,14.8,1111122 
DISL,ioos:station:DISL:PPTA:1,2012-03-05T02:00:00Z,30.2791,-87.5561,14.53,1111122 
DISL,ioos:station:DISL:PPTA:1,2012-03-05T02:30:00Z,30.2791,-87.5561,14.94,1111122 
DISL,ioos:station:DISL:PPTA:1,2012-03-05T03:00:00Z,30.2791,-87.5561,15.08,1111122 
DISL,ioos:station:DISL:PPTA:1,2012-03-05T03:30:00Z,30.2791,-87.5561,14.67,1111122 
DISL,ioos:station:DISL:PPTA:1,2012-03-05T04:00:00Z,30.2791,-87.5561,14.6,1111122 
DISL,ioos:station:DISL:PPTA:1,2012-03-05T04:30:00Z,30.2791,-87.5561,15.02,1111122 
DISL,ioos:station:DISL:PPTA:1,2012-03-05T05:00:00Z,30.2791,-87.5561,14.95,1111122 
DISL,ioos:station:DISL:PPTA:1,2012-03-05T05:30:00Z,30.2791,-87.5561,15.43,1111122 
DISL,ioos:station:DISL:PPTA:1,2012-03-05T06:00:00Z,30.2791,-87.5561,15.83,1111122 
DISL,ioos:station:DISL:PPTA:1,2012-03-05T06:30:00Z,30.2791,-87.5561,15.63,1111122 
DISL,ioos:station:DISL:PPTA:1,2012-03-05T07:00:00Z,30.2791,-87.5561,15.28,1111122 
DISL,ioos:station:DISL:PPTA:1,2012-03-05T07:30:00Z,30.2791,-87.5561,14.94,1111122 
DISL,ioos:station:DISL:PPTA:1,2012-03-05T08:00:00Z,30.2791,-87.5561,14.7,1111122 
DISL,ioos:station:DISL:PPTA:1,2012-03-05T08:30:00Z,30.2791,-87.5561,14.84,1111122 
DISL,ioos:station:DISL:PPTA:1,2012-03-05T09:00:00Z,30.2791,-87.5561,15.01,1111122 
DISL,ioos:station:DISL:PPTA:1,2012-03-05T09:30:00Z,30.2791,-87.5561,14.73,1111122 
DISL,ioos:station:DISL:PPTA:1,2012-03-05T10:00:00Z,30.2791,-87.5561,14.52,1111122 
DISL,ioos:station:DISL:PPTA:1,2012-03-05T10:30:00Z,30.2791,-87.5561,14.22,1111122 
DISL,ioos:station:DISL:PPTA:1,2012-03-05T11:00:00Z,30.2791,-87.5561,13.81,1111122 
DISL,ioos:station:DISL:PPTA:1,2012-03-05T11:30:00Z,30.2791,-87.5561,13.47,1111122 
DISL,ioos:station:DISL:PPTA:1,2012-03-05T12:00:00Z,30.2791,-87.5561,12.99,1111122 
DISL,ioos:station:DISL:PPTA:1,2012-03-05T12:30:00Z,30.2791,-87.5561,13.34,1111122 
DISL,ioos:station:DISL:PPTA:1,2012-03-05T13:00:00Z,30.2791,-87.5561,14.33,1111122 
DISL,ioos:station:DISL:PPTA:1,2012-03-05T13:30:00Z,30.2791,-87.5561,15.75,1111122 
DISL,ioos:station:DISL:PPTA:1,2012-03-05T15:30:00Z,30.2791,-87.5561,17.77,1111122 
DISL,ioos:station:DISL:PPTA:1,2012-03-05T16:00:00Z,30.2791,-87.5561,18.33,1111122 
DISL,ioos:station:DISL:PPTA:1,2012-03-05T16:30:00Z,30.2791,-87.5561,18.95,1111122 
DISL,ioos:station:DISL:PPTA:1,2012-03-05T17:00:00Z,30.2791,-87.5561,19.27,1111122 
DISL,ioos:station:DISL:PPTA:1,2012-03-05T17:30:00Z,30.2791,-87.5561,19.99,1111122 
DISL,ioos:station:DISL:PPTA:1,2012-03-05T18:00:00Z,30.2791,-87.5561,20.66,1111122 
DISL,ioos:station:DISL:PPTA:1,2012-03-05T18:30:00Z,30.2791,-87.5561,20.92,1111122 
DISL,ioos:station:DISL:PPTA:1,2012-03-05T19:00:00Z,30.2791,-87.5561,20.27,1111122 
DISL,ioos:station:DISL:PPTA:1,2012-03-05T19:30:00Z,30.2791,-87.5561,21.16,1111122 
DISL,ioos:station:DISL:PPTA:1,2012-03-05T20:00:00Z,30.2791,-87.5561,20.58,1111122 
DISL,ioos:station:DISL:PPTA:1,2012-03-05T20:30:00Z,30.2791,-87.5561,19.92,1111122 
DISL,ioos:station:DISL:PPTA:1,2012-03-05T21:00:00Z,30.2791,-87.5561,19.87,1111122 
DISL,ioos:station:DISL:PPTA:1,2012-03-05T21:30:00Z,30.2791,-87.5561,22.67,1111122 
DISL,ioos:station:DISL:PPTA:1,2012-03-05T22:00:00Z,30.2791,-87.5561,23.11,1111122 
DISL,ioos:station:DISL:PPTA:1,2012-03-05T22:30:00Z,30.2791,-87.5561,23.01,1111122 
DISL,ioos:station:DISL:PPTA:1,2012-03-05T23:00:00Z,30.2791,-87.5561,22.36,1111122 
DISL,ioos:station:DISL:PPTA:1,2012-03-05T23:30:00Z,30.2791,-87.5561,21.48,1111122 
DISL,ioos:station:DISL:PPTA:1,2012-03-06T00:00:00Z,30.2791,-87.5561,19.05,1111122 
DISL,ioos:station:DISL:PPTA:1,2012-03-06T00:30:00Z,30.2791,-87.5561,18.22,1111122 
DISL,ioos:station:DISL:PPTA:1,2012-03-06T01:00:00Z,30.2791,-87.5561,17.41,1111122 
DISL,ioos:station:DISL:PPTA:1,2012-03-06T01:30:00Z,30.2791,-87.5561,17.01,1111122 
DISL,ioos:station:DISL:PPTA:1,2012-03-06T02:00:00Z,30.2791,-87.5561,16.74,1111122 
DISL,ioos:station:DISL:PPTA:1,2012-03-06T02:30:00Z,30.2791,-87.5561,17.13,1111122 
DISL,ioos:station:DISL:PPTA:1,2012-03-06T03:00:00Z,30.2791,-87.5561,16.58,1111122 
DISL,ioos:station:DISL:PPTA:1,2012-03-06T03:30:00Z,30.2791,-87.5561,15.86,1111122 
DISL,ioos:station:DISL:PPTA:1,2012-03-06T04:00:00Z,30.2791,-87.5561,15.43,1111122 
DISL,ioos:station:DISL:PPTA:1,2012-03-06T04:30:00Z,30.2791,-87.5561,15.64,1111122 
DISL,ioos:station:DISL:PPTA:1,2012-03-06T05:00:00Z,30.2791,-87.5561,15.54,1111122 
DISL,ioos:station:DISL:PPTA:1,2012-03-06T05:30:00Z,30.2791,-87.5561,15.3,1111122 
DISL,ioos:station:DISL:PPTA:1,2012-03-06T06:00:00Z,30.2791,-87.5561,15.54,1111122 
DISL,ioos:station:DISL:PPTA:1,2012-03-06T06:30:00Z,30.2791,-87.5561,15.03,1111122 
DISL,ioos:station:DISL:PPTA:1,2012-03-06T07:00:00Z,30.2791,-87.5561,14.86,1111122 
DISL,ioos:station:DISL:PPTA:1,2012-03-06T07:30:00Z,30.2791,-87.5561,14.55,1111122 
DISL,ioos:station:DISL:PPTA:1,2012-03-06T08:00:00Z,30.2791,-87.5561,14.24,1111122 
DISL,ioos:station:DISL:PPTA:1,2012-03-06T08:30:00Z,30.2791,-87.5561,13.97,1111122 
DISL,ioos:station:DISL:PPTA:1,2012-03-06T09:00:00Z,30.2791,-87.5561,13.8,1111122 
DISL,ioos:station:DISL:PPTA:1,2012-03-06T09:30:00Z,30.2791,-87.5561,14.04,1111122 
DISL,ioos:station:DISL:PPTA:1,2012-03-06T10:00:00Z,30.2791,-87.5561,13.87,1111122 
DISL,ioos:station:DISL:PPTA:1,2012-03-06T10:30:00Z,30.2791,-87.5561,13.59,1111122 
DISL,ioos:station:DISL:PPTA:1,2012-03-06T11:00:00Z,30.2791,-87.5561,13.5,1111122 
DISL,ioos:station:DISL:PPTA:1,2012-03-06T11:30:00Z,30.2791,-87.5561,13.46,1111122 
DISL,ioos:station:DISL:PPTA:1,2012-03-06T12:00:00Z,30.2791,-87.5561,13.02,1111122 
DISL,ioos:station:DISL:PPTA:1,2012-03-06T12:30:00Z,30.2791,-87.5561,13.05,1111122 
DISL,ioos:station:DISL:PPTA:1,2012-03-06T13:00:00Z,30.2791,-87.5561,14.49,1111122 
DISL,ioos:station:DISL:PPTA:1,2012-03-06T13:30:00Z,30.2791,-87.5561,14.72,1111122 
DISL,ioos:station:DISL:PPTA:1,2012-03-06T14:00:00Z,30.2791,-87.5561,15.05,1111122 
DISL,ioos:station:DISL:PPTA:1,2012-03-06T15:00:00Z,30.2791,-87.5561,15.27,1111122 
DISL,ioos:station:DISL:PPTA:1,2012-03-06T15:30:00Z,30.2791,-87.5561,15.61,1111122 
DISL,ioos:station:DISL:PPTA:1,2012-03-06T16:00:00Z,30.2791,-87.5561,16.19,1111122 
DISL,ioos:station:DISL:PPTA:1,2012-03-06T16:30:00Z,30.2791,-87.5561,15.94,1111122 
DISL,ioos:station:DISL:PPTA:1,2012-03-06T17:00:00Z,30.2791,-87.5561,16.17,1111122 
DISL,ioos:station:DISL:PPTA:1,2012-03-06T17:30:00Z,30.2791,-87.5561,16.51,1111122 
DISL,ioos:station:DISL:PPTA:1,2012-03-06T18:00:00Z,30.2791,-87.5561,17.06,1111122 
DISL,ioos:station:DISL:PPTA:1,2012-03-06T18:30:00Z,30.2791,-87.5561,17.54,1111122 
DISL,ioos:station:DISL:PPTA:1,2012-03-06T19:00:00Z,30.2791,-87.5561,17.57,1111122 
DISL,ioos:station:DISL:PPTA:1,2012-03-06T19:30:00Z,30.2791,-87.5561,17.7,1111122 
DISL,ioos:station:DISL:PPTA:1,2012-03-06T20:00:00Z,30.2791,-87.5561,18.08,1111122 
DISL,ioos:station:DISL:PPTA:1,2012-03-06T20:30:00Z,30.2791,-87.5561,18.09,1111122 
DISL,ioos:station:DISL:PPTA:1,2012-03-06T21:00:00Z,30.2791,-87.5561,18.09,1111122 
DISL,ioos:station:DISL:PPTA:1,2012-03-06T21:30:00Z,30.2791,-87.5561,18.2,1111122 
DISL,ioos:station:DISL:PPTA:1,2012-03-06T22:00:00Z,30.2791,-87.5561,18.13,1111122 
DISL,ioos:station:DISL:PPTA:1,2012-03-06T22:30:00Z,30.2791,-87.5561,18.03,1111122 
DISL,ioos:station:DISL:PPTA:1,2012-03-06T23:00:00Z,30.2791,-87.5561,17.83,1111122 
DISL,ioos:station:DISL:PPTA:1,2012-03-06T23:30:00Z,30.2791,-87.5561,17.11,1111122 
DISL,ioos:station:DISL:PPTA:1,2012-03-07T00:00:00Z,30.2791,-87.5561,16.95,1111122 
DISL,ioos:station:DISL:PPTA:1,2012-03-07T00:30:00Z,30.2791,-87.5561,16.67,1111122 
DISL,ioos:station:DISL:PPTA:1,2012-03-07T01:00:00Z,30.2791,-87.5561,16.68,1111122 
DISL,ioos:station:DISL:PPTA:1,2012-03-07T01:30:00Z,30.2791,-87.5561,16.92,1111122 
DISL,ioos:station:DISL:PPTA:1,2012-03-07T02:00:00Z,30.2791,-87.5561,17.03,1111122 
DISL,ioos:station:DISL:PPTA:1,2012-03-07T02:30:00Z,30.2791,-87.5561,16.85,1111122 